DateTimeUTC,F1_A11,F1_S11,BsB_S11,BsG_S11,BsR_S11,BbsB_S11,BbsG_S11,BbsR_S11,BaB_A11,BaG_A11,BaR_A11,Tu_S11,T_S11,Uu_S11,U_S11,P_S11,T1_A11
2021-02-14T12:00:00Z,00000200,21000000,,,,,,,0000.11,0000.15,0000.04,17.1,23.6,01.3,00.8,0651.3,31.0
2021-02-14T12:01:00Z,00000200,21000000,,,,,,,-000.20,-000.39,-000.02,17.1,23.7,01.2,00.8,0651.2,31.0
2021-02-14T12:02:00Z,00000200,21000000,,,,,,,-000.09,0000.02,0000.02,17.1,23.7,01.2,00.8,0651.2,31.0
2021-02-14T12:03:00Z,00000200,61000000,,,,,,,-000.12,0000.15,-000.04,17.1,23.7,01.2,00.8,0651.2,31.0
2021-02-14T12:04:00Z,00000200,41000000,0000.03,0000.24,-000.24,0000.18,0000.11,-000.12,0000.49,-000.15,-000.11,17.2,23.5,01.2,00.8,0652.0,31.0
2021-02-14T12:05:00Z,00000200,01000000,0000.47,-000.10,0000.21,-000.80,0000.14,0000.14,0000.11,0000.49,0000.09,17.3,23.4,01.3,00.9,0651.9,31.0
2021-02-14T12:06:00Z,00000200,01000000,0000.29,-000.21,0000.19,0000.24,0000.07,0000.11,-000.18,-000.18,0000.08,17.3,23.4,01.3,00.9,0651.9,31.0
2021-02-14T12:07:00Z,00000200,01000000,0000.45,0000.14,-000.07,-000.06,0000.05,0000.01,0000.19,0000.09,-000.09,17.4,23.5,01.2,00.9,0652.0,31.1
2021-02-14T12:08:00Z,00000200,01000000,-000.34,0000.11,-000.02,-000.08,0000.08,0000.26,-000.38,0000.22,0000.15,17.5,23.5,01.2,00.8,0652.0,31.1
2021-02-14T12:09:00Z,00000200,01000000,0000.11,0000.47,0000.26,0000.46,0000.03,0000.25,-000.11,-000.26,-000.18,17.5,23.5,01.3,00.9,0652.0,31.1
2021-02-14T12:10:00Z,00000200,01000000,-000.41,0000.09,-000.01,-000.03,0000.04,0000.13,0000.29,0000.18,0000.16,17.5,23.5,01.1,00.8,0651.9,31.1
2021-02-14T12:11:00Z,00000200,01000000,0000.04,0000.22,0000.08,0000.58,0000.05,0000.37,0000.15,0000.06,0000.08,17.6,23.5,01.2,00.8,0651.8,31.0
2021-02-14T12:12:00Z,00000200,01000000,0000.17,0000.19,0000.15,0000.12,0000.02,0000.26,-000.35,-000.05,-000.43,17.5,23.5,01.1,00.8,0652.0,31.1
2021-02-14T12:13:00Z,00000200,01000000,0000.40,0000.00,-000.09,0000.06,0000.12,0000.16,0000.04,0000.06,0000.32,17.5,23.5,01.1,00.8,0652.0,31.1
2021-02-14T12:14:00Z,00000200,01000000,0000.59,-000.16,0000.27,0000.27,0000.02,0000.19,-000.06,-000.29,-000.02,17.5,23.5,01.1,00.8,0652.0,31.1
2021-02-14T12:15:00Z,00000200,01000000,-000.29,0000.03,-000.06,0000.08,0000.06,0000.28,-000.27,0000.30,0000.19,17.5,23.5,01.1,00.8,0651.9,31.1
2021-02-14T12:16:00Z,00000200,01000000,0000.45,-000.21,0000.09,-000.11,-000.23,0000.07,0000.29,-000.33,0000.08,17.5,23.5,01.1,00.8,0652.0,31.1
2021-02-14T12:17:00Z,00000200,01000000,0000.51,0000.55,0000.15,-000.07,-000.00,0000.14,-000.06,0000.16,-000.26,17.5,23.5,01.1,00.7,0651.9,31.1
2021-02-14T12:18:00Z,00000200,01000000,0000.12,0000.20,0000.22,0000.57,0000.07,0000.35,0000.11,-000.47,0000.17,17.5,23.5,01.0,00.7,0651.9,31.1
2021-02-14T12:19:00Z,00000200,01000000,0000.18,0000.33,0000.02,0000.18,0000.14,0000.34,0000.14,0000.17,-000.34,17.4,23.5,01.1,00.8,0651.9,31.0
2021-02-14T12:20:00Z,00000200,01000000,-000.22,-000.31,-000.01,0000.14,0000.14,0000.18,-000.04,0000.13,0000.29,17.4,23.5,01.1,00.8,0651.9,31.0
2021-02-14T12:21:00Z,00000200,01000000,-000.08,0000.10,-000.03,0000.30,0000.10,0000.18,0000.04,-000.04,-000.14,17.5,23.5,01.1,00.7,0651.8,31.1
2021-02-14T12:22:00Z,00000200,01000000,0000.12,-000.21,0000.19,0000.29,0000.38,0000.22,-000.10,-000.01,0000.02,17.5,23.5,01.1,00.7,0651.8,31.1
2021-02-14T12:23:00Z,00000200,01000000,-000.59,-000.06,0000.19,0000.16,0000.33,0000.14,0000.15,0000.21,0000.01,17.5,23.5,01.0,00.7,0651.9,31.0
2021-02-14T12:24:00Z,00000200,01000000,0000.65,0000.27,0000.12,0000.57,-000.09,0000.38,0000.05,0000.09,0000.47,17.6,23.5,01.1,00.7,0651.7,31.0
2021-02-14T12:25:00Z,00000200,01000000,0000.27,0000.16,0000.23,0000.15,-000.13,0000.11,-000.24,-000.01,-000.26,17.6,23.5,01.1,00.8,0651.8,31.0
2021-02-14T12:26:00Z,00000200,01000000,-000.43,-000.16,-000.21,0000.52,0000.29,0000.02,0000.36,0000.08,-000.13,17.5,23.5,01.0,00.7,0651.7,31.0
2021-02-14T12:27:00Z,00000200,01000000,0000.22,0000.11,0000.34,0000.51,-000.23,0000.30,-000.17,-000.15,0000.25,17.5,23.5,01.1,00.8,0651.7,31.1
2021-02-14T12:28:00Z,00000200,01000000,0000.20,0000.04,0000.21,-000.27,0000.00,0000.10,0000.05,0000.37,-000.10,17.5,23.5,01.1,00.7,0651.7,31.1
2021-02-14T12:29:00Z,00000200,01000000,0000.57,0000.09,0000.24,0000.89,0000.04,0000.36,0000.32,-000.01,0000.18,17.5,23.5,01.1,00.8,0651.8,31.1
2021-02-14T12:30:00Z,00000200,01000000,0000.76,0000.03,0000.08,0000.86,0000.31,0000.16,-000.06,-000.04,0000.18,17.5,23.5,01.1,00.7,0651.8,31.1
2021-02-14T12:31:00Z,00000200,01000000,0000.31,-000.16,-000.02,0000.58,-000.07,0000.02,0000.04,0000.02,-000.23,17.5,23.5,01.1,00.8,0651.8,31.1
2021-02-14T12:32:00Z,00000200,01000000,0000.52,0000.34,0000.13,-000.15,0000.20,0000.05,-000.03,-000.10,0000.03,17.4,23.5,01.2,00.8,0651.8,31.1
2021-02-14T12:33:00Z,00000200,01000000,0000.25,0000.24,-000.07,-000.01,0000.28,-000.14,0000.27,0000.52,-000.04,17.5,23.5,01.2,00.8,0651.9,31.0
2021-02-14T12:34:00Z,00000200,01000000,0000.25,0000.44,0000.15,0000.16,0000.15,0000.01,-000.22,-000.36,-000.04,17.4,23.5,01.2,00.8,0651.9,31.0
2021-02-14T12:35:00Z,00000200,01000000,0000.41,0000.53,0000.04,0000.13,-000.07,0000.30,-000.00,0000.19,0000.28,17.4,23.5,01.1,00.8,0651.8,31.0
2021-02-14T12:36:00Z,00000200,01000000,0000.18,0000.14,-000.28,-000.07,0000.09,0000.17,0000.34,-000.14,-000.15,17.4,23.4,01.1,00.8,0651.8,31.0
2021-02-14T12:37:00Z,00000200,01000000,0000.63,0000.15,0000.62,-000.11,0000.40,0000.45,-000.30,0000.14,0000.21,17.4,23.4,01.2,00.8,0651.9,31.0
2021-02-14T12:38:00Z,00000200,01000000,0000.53,0000.07,0000.29,0000.27,-000.03,0000.10,0000.06,-000.22,-000.14,17.4,23.4,01.2,00.8,0651.9,31.0
2021-02-14T12:39:00Z,00000200,01000000,0000.13,0000.02,0000.27,-000.07,0000.24,0000.10,0000.28,-000.16,-000.19,17.4,23.4,01.1,00.8,0651.8,31.1
2021-02-14T12:40:00Z,00000200,01000000,0000.79,0000.17,0000.22,0000.03,0000.17,0000.47,-000.18,0000.32,0000.24,17.3,23.4,01.1,00.8,0651.8,31.0
2021-02-14T12:41:00Z,00000200,01000000,0000.15,-000.01,0000.10,0000.72,0000.14,0000.38,0000.03,0000.26,0000.15,17.3,23.4,01.2,00.8,0651.7,31.0
2021-02-14T12:42:00Z,00000200,01000000,0000.22,0000.08,0000.04,-000.02,0000.11,0000.32,0000.03,-000.05,-000.13,17.3,23.4,01.2,00.8,0651.6,31.0
2021-02-14T12:43:00Z,00000200,01000000,0000.83,0000.16,-000.01,0000.57,0000.40,0000.00,0000.49,-000.00,-000.04,17.3,23.4,01.0,00.7,0651.5,31.0
2021-02-14T12:44:00Z,00000200,01000000,-000.26,0000.24,0000.28,0000.07,0000.31,0000.21,-000.15,0000.04,0000.22,17.3,23.4,01.2,00.8,0651.4,31.0
2021-02-14T12:45:00Z,00000200,01000000,0000.58,-000.12,0000.18,0000.17,0000.06,0000.36,-000.16,0000.22,0000.02,17.3,23.3,01.1,00.7,0651.2,31.0
2021-02-14T12:46:00Z,00000200,01000000,0000.57,-000.04,0000.10,0000.53,0000.10,0000.14,0000.19,-000.37,-000.29,17.3,23.3,01.1,00.7,0651.1,31.0
2021-02-14T12:47:00Z,00000200,01000000,0000.06,0000.33,0000.27,0000.40,0000.15,0000.18,-000.15,0000.01,0000.12,17.3,23.3,01.1,00.8,0651.3,31.0
2021-02-14T12:48:00Z,00000200,01000000,-000.07,0000.26,0000.02,0000.55,0000.19,0000.05,-000.07,0000.38,0000.08,17.3,23.3,01.1,00.7,0651.2,31.0
2021-02-14T12:49:00Z,00000200,01000000,0000.02,0000.16,-000.08,-000.05,0000.14,0000.10,0000.00,-000.37,0000.02,17.2,23.3,01.1,00.8,0651.2,31.0
2021-02-14T12:50:00Z,00000200,01000000,0000.86,0000.28,0000.19,0000.11,0000.26,0000.02,0000.10,0000.18,0000.03,17.2,23.3,01.1,00.7,0651.1,31.0
2021-02-14T12:51:00Z,00000200,01000000,0000.58,0000.09,0000.12,0000.19,-000.23,0000.30,0000.00,0000.09,-000.12,17.3,23.3,01.0,00.7,0651.2,31.0
2021-02-14T12:52:00Z,00000200,01000000,0000.10,0000.09,0000.23,0000.14,0000.16,0000.36,0000.14,0000.21,0000.32,17.4,23.3,01.0,00.7,0651.2,31.0
2021-02-14T12:53:00Z,00000200,01000000,0000.10,0000.03,-000.07,0000.16,0000.40,0000.13,0000.20,-000.03,0000.26,17.5,23.4,01.0,00.7,0651.4,31.0
2021-02-14T12:54:00Z,00000200,01000000,0000.21,-000.16,0000.23,0000.91,0000.08,0000.10,-000.06,0000.15,-000.51,17.6,23.4,01.0,00.7,0651.4,31.1
2021-02-14T12:55:00Z,00000200,01000000,0000.14,-000.00,-000.26,0000.23,0000.04,-000.10,-000.13,-000.34,0000.07,17.6,23.5,01.0,00.7,0651.3,31.1
2021-02-14T12:56:00Z,00000200,01000000,0000.70,0000.07,0000.05,0000.29,0000.04,0000.59,0000.20,0000.05,0000.08,17.6,23.5,01.0,00.7,0651.5,31.1
2021-02-14T12:57:00Z,00000200,41000000,,,,,,,-000.03,0000.47,0000.00,17.7,23.5,00.6,00.4,0651.7,31.1
2021-02-14T12:58:00Z,00000200,61000000,,,,,,,-000.12,-000.73,0000.19,17.4,23.6,00.8,00.6,0650.8,31.1
2021-02-14T12:59:00Z,00000200,21000000,,,,,,,-000.28,0000.16,-000.28,17.3,23.7,00.9,00.6,0650.8,31.1
